Location: Spruce Knob
(38.6995°N, 79.5330°W)
Time: 22:17:13
(UTC-04:00)

A-11 Canister half - Pass Details

Date: 30 January 2022
Orbit: 1513 x 1686 km, 47.2° (Epoch: 24 May)

Event Time Altitude Azimuth Distance (km) Brightness Sun altitude
Rises 22:30:11 0° 299° (WNW) 4,673 12.1 -56.1°
Reaches altitude 10° 22:33:21 10° 294° (WNW) 3,679 11.4 -56.6°
Enters shadow 22:35:31 19° 289° (WNW) 3,037 10.8 -57.0°
Maximum altitude 22:42:03 48° 224° (SW) 1,890 - -58.0°
Drops below altitude 10° 22:50:47 10° 153° (SSE) 3,686 - -59.4°
Sets 22:53:58 0° 148° (SSE) 4,682 - -59.9°
